Hourly Weather Kozin

Today, 28 October, Wednesday

Time Temperature Precipitation Wind Pressure Humidity
00:00 +7°C° 0 mm 4 mps 752 mmHg 75%
01:00 +7°C° 0 mm 4 mps 752 mmHg 75%
02:00 +7°C° 0 mm 5 mps 752 mmHg 75%
03:00 +7°C° 0 mm 5 mps 751 mmHg 75%
04:00 +7°C° 0 mm 5 mps 751 mmHg 76%
05:00 +7°C° 0 mm 5 mps 751 mmHg 74%
06:00 +7°C° 0 mm 5 mps 751 mmHg 73%
07:00 +8°C° 0 mm 6 mps 751 mmHg 69%
08:00 +8°C° 0.1 mm 6 mps 751 mmHg 73%
09:00 +8°C° 0.1 mm 5 mps 751 mmHg 77%
10:00 +8°C° 0.1 mm 5 mps 752 mmHg 81%
11:00 +8°C° 0.1 mm 5 mps 752 mmHg 80%
12:00 +9°C° 0.1 mm 5 mps 752 mmHg 80%
13:00 +10°C° 0 mm 4 mps 752 mmHg 82%
14:00 +11°C° 0 mm 4 mps 752 mmHg 82%
15:00 +11°C° 0 mm 4 mps 752 mmHg 82%
16:00 +11°C° 0 mm 4 mps 752 mmHg 82%
17:00 +11°C° 0 mm 4 mps 752 mmHg 84%
18:00 +10°C° 0 mm 4 mps 752 mmHg 85%
19:00 +10°C° 0 mm 4 mps 752 mmHg 87%
20:00 +10°C° 0 mm 4 mps 753 mmHg 88%
21:00 +8°C° 0 mm 4 mps 753 mmHg 89%
22:00 +8°C° 0 mm 4 mps 753 mmHg 90%
23:00 +8°C° 0 mm 4 mps 753 mmHg 90%

Tomorrow, 29 October, Thursday

Time Temperature Precipitation Wind Pressure Humidity
00:00 +8°C° 0 mm 4 mps 753 mmHg 90%
01:00 +7°C° 0 mm 4 mps 752 mmHg 91%
02:00 +8°C° 0 mm 4 mps 752 mmHg 88%
03:00 +8°C° 0 mm 4 mps 752 mmHg 85%
04:00 +8°C° 0 mm 5 mps 751 mmHg 82%
05:00 +8°C° 0.4 mm 5 mps 751 mmHg 83%
06:00 +8°C° 0.4 mm 5 mps 751 mmHg 85%
07:00 +9°C° 0.4 mm 6 mps 750 mmHg 86%
08:00 +9°C° 0.3 mm 6 mps 751 mmHg 82%
09:00 +10°C° 0.3 mm 6 mps 751 mmHg 79%
10:00 +10°C° 0.3 mm 7 mps 751 mmHg 75%
11:00 +10°C° 0 mm 7 mps 751 mmHg 72%
12:00 +10°C° 0 mm 7 mps 752 mmHg 70%
13:00 +10°C° 0 mm 8 mps 752 mmHg 68%
14:00 +9°C° 0 mm 7 mps 753 mmHg 68%
15:00 +9°C° 0 mm 7 mps 753 mmHg 69%
16:00 +9°C° 0 mm 7 mps 754 mmHg 70%
17:00 +8°C° 0 mm 7 mps 754 mmHg 72%
18:00 +8°C° 0 mm 7 mps 755 mmHg 74%
19:00 +8°C° 0 mm 7 mps 755 mmHg 77%
20:00 +7°C° 0 mm 6 mps 755 mmHg 79%
21:00 +7°C° 0 mm 6 mps 756 mmHg 82%
22:00 +7°C° 0 mm 6 mps 756 mmHg 84%
23:00 +6°C° 0 mm 5 mps 756 mmHg 86%

Day after tomorrow, 30 October, Friday

Time Temperature Precipitation Wind Pressure Humidity
00:00 +6°C° 0 mm 5 mps 757 mmHg 88%
01:00 +6°C° 0 mm 4 mps 757 mmHg 89%
02:00 +6°C° 0 mm 4 mps 757 mmHg 88%
03:00 +7°C° 0 mm 3 mps 757 mmHg 86%
04:00 +7°C° 0 mm 3 mps 757 mmHg 84%
05:00 +7°C° 0.3 mm 3 mps 757 mmHg 87%
06:00 +7°C° 0.3 mm 3 mps 756 mmHg 90%
07:00 +7°C° 0.3 mm 3 mps 756 mmHg 92%
08:00 +8°C° 1.1 mm 3 mps 756 mmHg 94%
09:00 +8°C° 1.1 mm 3 mps 756 mmHg 95%
10:00 +9°C° 1.1 mm 3 mps 756 mmHg 96%
11:00 +10°C° 0.8 mm 4 mps 755 mmHg 95%
12:00 +11°C° 0.8 mm 4 mps 755 mmHg 95%
13:00 +12°C° 0.8 mm 5 mps 755 mmHg 94%
14:00 +12°C° 0.3 mm 5 mps 755 mmHg 94%
15:00 +12°C° 0.3 mm 5 mps 755 mmHg 94%
16:00 +12°C° 0.3 mm 5 mps 755 mmHg 94%
17:00 +12°C° 1 mm 5 mps 755 mmHg 94%
18:00 +12°C° 1 mm 5 mps 756 mmHg 94%
19:00 +12°C° 1 mm 5 mps 756 mmHg 94%
20:00 +13°C° 0.4 mm 5 mps 756 mmHg 94%
21:00 +13°C° 0.4 mm 5 mps 757 mmHg 94%
22:00 +13°C° 0.4 mm 5 mps 757 mmHg 93%
23:00 +13°C° 0.1 mm 5 mps 757 mmHg 93%

31 October, Saturday

Time Temperature Precipitation Wind Pressure Humidity
00:00 +13°C° 0.1 mm 5 mps 758 mmHg 93%
01:00 +13°C° 0.1 mm 5 mps 758 mmHg 93%
02:00 +13°C° 0.1 mm 4 mps 758 mmHg 93%
03:00 +13°C° 0.1 mm 4 mps 759 mmHg 94%
04:00 +13°C° 0.1 mm 3 mps 759 mmHg 95%
05:00 +13°C° 0.1 mm 3 mps 759 mmHg 95%
06:00 +12°C° 0.1 mm 3 mps 760 mmHg 95%
07:00 +12°C° 0.1 mm 3 mps 760 mmHg 96%
08:00 +13°C° 0.2 mm 3 mps 760 mmHg 95%
09:00 +14°C° 0.2 mm 2 mps 760 mmHg 95%
10:00 +14°C° 0.2 mm 2 mps 760 mmHg 94%
11:00 +14°C° 0.1 mm 2 mps 760 mmHg 93%
12:00 +14°C° 0.1 mm 2 mps 761 mmHg 92%
13:00 +14°C° 0.1 mm 2 mps 761 mmHg 91%
14:00 +14°C° 0 mm 1 mps 760 mmHg 91%
15:00 +14°C° 0 mm 1 mps 760 mmHg 91%
16:00 +14°C° 0 mm 1 mps 760 mmHg 91%
17:00 +14°C° 0 mm 1 mps 760 mmHg 92%
18:00 +13°C° 0 mm 2 mps 760 mmHg 93%
19:00 +12°C° 0 mm 2 mps 760 mmHg 94%
20:00 +12°C° 0 mm 2 mps 760 mmHg 95%
21:00 +12°C° 0 mm 2 mps 760 mmHg 95%
22:00 +12°C° 0 mm 2 mps 760 mmHg 96%
23:00 +11°C° 0 mm 3 mps 760 mmHg 96%

1 November, Sunday

Time Temperature Precipitation Wind Pressure Humidity
00:00 +10°C° 0 mm 3 mps 759 mmHg 95%
01:00 +10°C° 0 mm 3 mps 759 mmHg 95%
02:00 +10°C° 0 mm 3 mps 759 mmHg 95%
03:00 +10°C° 0 mm 4 mps 759 mmHg 95%
04:00 +10°C° 0 mm 4 mps 758 mmHg 94%
05:00 +10°C° 0 mm 4 mps 758 mmHg 94%
06:00 +10°C° 0 mm 4 mps 758 mmHg 94%
07:00 +10°C° 0 mm 4 mps 758 mmHg 94%
08:00 +11°C° 0 mm 4 mps 758 mmHg 90%
09:00 +10°C° 0 mm 5 mps 757 mmHg 86%
10:00 +12°C° 0 mm 5 mps 757 mmHg 82%
11:00 +13°C° 0 mm 5 mps 757 mmHg 79%
12:00 +14°C° 0 mm 6 mps 756 mmHg 75%
13:00 +14°C° 0 mm 6 mps 756 mmHg 72%
14:00 +14°C° 0 mm 5 mps 756 mmHg 74%
15:00 +14°C° 0 mm 5 mps 756 mmHg 75%
16:00 +13°C° 0 mm 4 mps 755 mmHg 77%
17:00 +13°C° 0 mm 4 mps 755 mmHg 78%
18:00 +13°C° 0 mm 4 mps 755 mmHg 79%
19:00 +13°C° 0 mm 5 mps 755 mmHg 80%
20:00 +13°C° 0 mm 4 mps 755 mmHg 81%
21:00 +13°C° 0 mm 4 mps 755 mmHg 82%
22:00 +13°C° 0 mm 4 mps 755 mmHg 83%
23:00 +13°C° 0 mm 4 mps 755 mmHg 84%

2 November, Monday

Time Temperature Precipitation Wind Pressure Humidity
00:00 +13°C° 0 mm 4 mps 755 mmHg 86%
01:00 +13°C° 0 mm 4 mps 755 mmHg 87%
02:00 +13°C° 0 mm 4 mps 754 mmHg 87%
03:00 +13°C° 0 mm 4 mps 754 mmHg 87%
04:00 +13°C° 0 mm 4 mps 754 mmHg 87%
05:00 +13°C° 0 mm 4 mps 754 mmHg 87%
06:00 +13°C° 0 mm 4 mps 754 mmHg 86%
07:00 +13°C° 0 mm 4 mps 754 mmHg 86%
08:00 +14°C° 0 mm 4 mps 754 mmHg 84%
09:00 +15°C° 0 mm 4 mps 754 mmHg 81%
10:00 +15°C° 0 mm 5 mps 754 mmHg 79%
11:00 +17°C° 0 mm 4 mps 754 mmHg 77%
12:00 +18°C° 0 mm 4 mps 754 mmHg 75%
13:00 +19°C° 0 mm 4 mps 754 mmHg 73%
14:00 +18°C° 0 mm 4 mps 754 mmHg 76%
15:00 +18°C° 0 mm 3 mps 754 mmHg 79%
16:00 +17°C° 0 mm 3 mps 754 mmHg 82%
17:00 +17°C° 0 mm 3 mps 754 mmHg 83%
18:00 +16°C° 0 mm 3 mps 754 mmHg 85%
19:00 +15°C° 0 mm 4 mps 755 mmHg 86%
20:00 +15°C° 0 mm 4 mps 755 mmHg 85%
21:00 +14°C° 0 mm 4 mps 755 mmHg 84%
22:00 +14°C° 0 mm 4 mps 755 mmHg 82%
23:00 +14°C° 0 mm 3 mps 755 mmHg 82%
Show more